Torna al catalogo

STARLINK-4355

AttivoComunicazioniSSO
NORAD 53048·PAYLOAD·🇺🇸 United States

Lanciato Jul 11, 2022 da Vandenberg Space Force Base

Loading…

Prossimi Passaggi (prossime 24 ore)

TLE

AggiornatoSource: CelesTrak SupGP

Epoca: Sep 14, 2026, 21:43 UTC

1 53048C 22077F   26257.90534722  .00075516  00000+0  23440-2 0  2577
2 53048  97.2857  73.7343 0001122  96.8615 203.7502 15.33404347    12

Traccia STARLINK-4355 in tempo reale con AllMySat

Download on the App Store